Regional Weather Roundup
Issued by NWS

Home | Current Version | Previous Version | Graphics & Text | Print | Product List | Glossary On
Versions: 1 2 3 4 5 6 7 8 9 10 11 12 13 14 15 16 17 18 19 20 21 22 23 24 25 26 27 28 29 30 31 32 33 34 35 36 37 38 39 40 41 42 43 44 45 46 47 48 49 50
498
ASUS43 KDMX 280903
RWRIA

WEATHER ROUNDUP FOR IOWA
NATIONAL WEATHER SERVICE DES MOINES IA
400 AM CDT SAT MAY 28 2016

NOTE: "FAIR" INDICATES FEW OR NO CLOUDS BELOW 12,000 FEET WITH NO
SIGNIFICANT WEATHER AND/OR OBSTRUCTIONS TO VISIBILITY.

* - THESE STATIONS ARE NOT NWS STATIONS...THUS NOT UNDER NWS
QUALITY CONTROL.  THEY ALSO DO NOT REPORT WEATHER SUCH
AS PRECIPITATION OR FOG.

IAZ001>003-012>014-020>022-031>034-043>046-281000-
   NORTHWEST IOWA

CITY           SKY/WX    TMP DP  RH WIND       PRES   REMARKS
CARROLL *      CLOUDY    64  63  94 S10       29.73R
CHEROKEE *     RAIN      62  62 100 NE5       29.71S
DENISON *      CLOUDY    63  61  94 SE6       29.70S
LE MARS *      CLOUDY    63  59  88 NE7       29.71S
ORANGE CITY *  LGT RAIN  61  61 100 N5        29.72S
SHELDON *      CLOUDY    61  61 100 CALM      29.71F
SIOUX CITY     CLOUDY    64  61  90 E13       29.67F
SPENCER        CLOUDY    64  62  93 NW5       29.73R
STORM LAKE *   CLOUDY    63  63 100 SE5       29.72F
$$

IAZ055>058-069>071-079>083-090>094-281000-
   SOUTHWEST IOWA

CITY           SKY/WX    TMP DP  RH WIND       PRES   REMARKS
ATLANTIC *     LGT RAIN  61  61 100 NE6       29.72F
AUDUBON *      RAIN      63  59  88 S6        29.75R
CLARINDA *       N/A     61  59  94 MISG      29.74R
COUNCIL BLFS * CLOUDY    61  59  94 SW9       29.72R
CRESTON *      CLOUDY    63  63 100 CALM      29.75R
HARLAN  *      LGT RAIN  63  61  94 SE13      29.75R
LAMONI         CLOUDY    61  61 100 E3        29.74R
RED OAK *      CLOUDY    61  59  94 E6        29.73R
SHENANDOAH *   CLOUDY    61  61 100 CALM      29.73R
$$

IAZ047>049-059>061-072>074-084-281000-
   CENTRAL IOWA

CITY           SKY/WX    TMP DP  RH WIND       PRES   REMARKS
AMES           CLOUDY    64  63  96 SE5       29.72S
ANKENY *       CLOUDY    63  63 100 S6        29.73S
BOONE *        CLOUDY    64  63  94 SE7       29.72R
CHARITON *     LGT RAIN  63  63 100 SE6       29.74F
DES MOINES     LGT RAIN  64  60  87 S8        29.74R
GRINNELL*      RAIN      61  59  94 SE6       29.76R
KNOXVILLE *    MOCLDY    63  61  94 S5        29.73R
MARSHALLTOWN   CLOUDY    65  63  93 S10       29.73R
NEWTON *       CLOUDY    63  63 100 SE7       29.73F
PELLA *        CLOUDY    62  61  96 E5        29.73F
PERRY *        CLOUDY    64  63  94 S9        29.73R
$$

IAZ004>006-015-016-023>025-035-036-281000-
   NORTH CENTRAL IOWA

CITY           SKY/WX    TMP DP  RH WIND       PRES   REMARKS
ALGONA *       CLOUDY    63  63 100 CALM      29.72F
CLARION *      CLOUDY    63  63 100 SE3       29.72R
ESTHERVILLE    CLOUDY    64  62  93 CALM      29.72S
FORT DODGE *   CLOUDY    64  61  88 CALM      29.72S
MASON CITY     MOCLDY    63  62  97 CALM      29.73F
FOREST CITY *  PTCLDY    61  61 100 CALM      29.72F FOG
WEBSTER CITY * CLOUDY    63  63 100 SE6       29.70S
IOWA FALLS *   LGT RAIN  66  64  94 CALM      29.74S
$$

IAZ007>011-017>019-026>030-037>042-050>054-066-281000-
   NORTHEAST IOWA

CITY           SKY/WX    TMP DP  RH WIND       PRES   REMARKS
CEDAR RAPIDS   HVY RAIN  64  64 100 SW7       29.74R FOG
CHARLES CITY * CLOUDY    64  64 100 N5        29.72S
CLINTON *      CLOUDY    69  66  90 S14       29.76R
DECORAH *      CLOUDY    66  66 100 CALM      29.71F FOG
DUBUQUE        CLOUDY    66  65  96 S17G23    29.73S
MONTICELLO *   CLOUDY    64  63  94 CALM      29.72F
OELWEIN *      CLOUDY    66  66 100 SW3       29.74R FOG
WATERLOO       LGT RAIN  65  63  93 S7        29.73R
$$

IAZ064-065-067-068-078-281000-
   EAST CENTRAL IOWA

CITY           SKY/WX    TMP DP  RH WIND       PRES   REMARKS
DAVENPORT      CLOUDY    67  65  93 S10       29.74F
IOWA CITY      LGT RAIN  64  62  93 W9        29.77R
MT. PLEASANT * CLOUDY    66  66 100 SW8       29.76R
MUSCATINE *    CLOUDY    64  64 100 CALM      29.74S
QUAD CITIES    CLOUDY    71  65  81 S13       29.74S
$$

IAZ062-063-075>077-085>089-095>099-281000-
   SOUTHEAST IOWA

CITY           SKY/WX    TMP DP  RH WIND       PRES   REMARKS
BURLINGTON     MOCLDY    66  66 100 S8        29.76R
FAIRFIELD *      N/A    N/A N/A N/A MISG        N/A
FORT MADISON * CLOUDY    66  64  94 S6        29.78S
KEOKUK *       CLOUDY    66  66 100 S5        29.76S
OSKALOOSA *    MOCLDY    63  61  94 CALM      29.75F
OTTUMWA        MOCLDY    63  62  97 NE5       29.74F
WASHINGTON *   CLOUDY    64 N/A N/A NW7       29.77S
$$

ABBREVIATIONS USED IN REMARKS
   TC - TEMPERATURES IN CELSIUS
  WCI - WIND CHILL INDEX
   HX - HEAT INDEX
  VSB - VISIBILITY
$$





USA.gov is the U.S. government's official web portal to all federal, state and local government web resources and services.